User: anonymous   Login
Location: �clusier
(49.9361°N, 2.7869°E)
Time: 11:24:46
(UTC+00:00)
Language:

Cosmos 1544 Rocket - Orbit

View from above orbital plane
View from above orbital plane
View from above satellite
View from above satellite

Ground track
Ground track

The orbit data is extracted from the following two-line orbital elements,

1 14820U 84027B   21263.18873694  .00000096  00000-0  87666-5 0  9999
2 14820  82.5446 331.7105 0017875 330.3505  29.6695 14.83716555 26676
Epoch (UTC): 20 September 2021 04:31:46
Eccentricity: 0.0017875
inclination: 82.5446°
perigee height: 605 km
apogee height: 630 km
right ascension of ascending node: 331.7105°
argument of perigee: 330.3505°
revolutions per day: 14.83716555
mean anomaly at epoch: 29.6695°
orbit number at epoch: 2667

The dashed part of the orbit path shows where the satellite is in the earth's shadow,  

DLR